Regional Weather Roundup
Issued by NWS

Home | Current Version | Previous Version | Graphics & Text | Print | Product List | Glossary On
Versions: 1 2 3 4 5 6 7 8 9 10 11 12 13 14 15 16 17 18 19 20 21 22 23 24 25 26 27 28 29 30 31 32 33 34 35 36 37 38 39 40 41 42 43 44 45 46 47 48 49 50
000
ASUS43 KMPX 152210
RWRMN
WEATHER ROUNDUP FOR MINNESOTA
NATIONAL WEATHER SERVICE TWIN CITIES/CHANHASSEN MN
400 PM CST MON JAN 15 2018


NOTE: "FAIR" INDICATES FEW OR NO CLOUDS BELOW 12,000 FEET WITH NO
SIGNIFICANT WEATHER AND/OR OBSTRUCTIONS TO VISIBILITY. N/A MEANS
CURRENT SKY AND/OR WEATHER CONDITIONS ARE NOT AVAILABLE.

MNZ060>063-068>070-152300-
   Twin Cities Metro

CITY           SKY/WX    TMP DP  RH WIND       PRES   REMARKS
TWIN CITIES    MOCLDY     4  -4  69 NW16      30.44R WCI -15
ST PAUL        MOCLDY     5  -3  69 NW16      30.45R WCI -14
CRYSTAL        FAIR       4  -6  63 NW17      30.44R WCI -16
BLAINE         FLURRIES   7   0  72 NW13G21   30.43R WCI  -9
LAKEVILLE      FAIR       1  -6  71 NW17G24   30.43R WCI -19
EDEN PRAIRIE   MOCLDY     4  -6  63 NW13      30.44R WCI -13
SOUTH ST PAUL  CLOUDY     6  -3  66 NW12G17   30.43R WCI -10
LAKE ELMO      FAIR       7   0  72 NW9G18    30.43R WCI  -7
$$
MNZ001>005-007-008-013>017-022>024-027-028-152300-
   Northwest Minnesota

CITY           SKY/WX    TMP DP  RH WIND       PRES   REMARKS
BEMIDJI        CLOUDY    -4 -10  74 NW15      30.57R WCI -25
HALLOCK        CLOUDY    -8 -15  71 N22G28    30.77R HAZE    WCI -33
ROSEAU         FAIR      -2  -9  71 N9        30.70R WCI -18
WARROAD        FAIR       0  -9  65 N8        30.69R WCI -15
CROOKSTON      SNOW     -11 -17  77 N26       30.74R VSB 1/2 WCI -40
FOSSTON        CLOUDY    -8 -17  65 NW13      30.64R WCI -28
DETROIT LAKES  CLOUDY    -9 -15  77 NW17      30.60R HAZE    WCI -33
MOORHEAD       HAZE     -11 -17  77 N23       30.72R VSB 1   WCI -38
PARK RAPIDS    FAIR      -3 -12  65 N12       30.53R WCI -21
MAHNOMEN       MOCLDY    -9 -16  74 N13       30.64R WCI -30
$$
MNZ006-009>011-018-025>026-152300-
   North Central Minnesota

CITY           SKY/WX    TMP DP  RH WIND       PRES   REMARKS
BAUDETTE       CLOUDY    -4 -11  72 NW13      30.62R WCI -23
FLAG ISLAND    FAIR      -2  -9  71 N14       30.68R WCI -21
INTL FALLS     CLOUDY     2  -6  69 N10       30.58R WCI -14
WASKISH        CLOUDY    -4  -9  77 NW8G16    30.61R WCI -19
BIG FORK       MOCLDY     3  -4  72 N9        30.53R WCI -11
LONGVILLE      CLOUDY     0  -9  65 NW5       30.52R WCI -10
GRAND RAPIDS   CLOUDY     2  -3  80 N16       30.51R WCI -18
CRANE LAKE     CLOUDY     3  -2  78 N7G16     30.57R WCI  -9
ORR            CLOUDY     3  -4  72 NW3       30.50R
COOK           CLOUDY     3   0  85 N8        30.51R WCI -10
WALKER         CLOUDY    -3 -11  68 NW13      30.54R WCI -22
$$
MNZ012-019>021-037-152300-
   Northeast Minnesota

CITY           SKY/WX    TMP DP  RH WIND       PRES   REMARKS
DULUTH         SNOW       7   4  87 N17G26    30.38R VSB 1/4 WCI -12
ELY            LGT SNOW   7   3  85 N5        30.45R WCI  -2
HIBBING        CLOUDY     3  -3  76 N14       30.47R WCI -15
EVELETH        CLOUDY     5  -3  72 N8G18     30.46R WCI  -9
DULUTH HARBOR  LGT SNOW  14   9  79 N17G24    30.44R WCI  -3
TWO HARBORS    FAIR      16   7  67 N10G16    30.37R WCI   3
GRAND MARAIS     N/A     20  12  71 N10G22    30.42R WCI   9
G MARAIS ARPRT LGT SNOW  12   7  79 N13       30.36R WCI  -3
$$
MNZ029>031-032-039>041-046>048-054>057-064-152300-
   West Central Minnesota

CITY           SKY/WX    TMP DP  RH WIND       PRES   REMARKS
FERGUS FALLS   MOCLDY   -11 -18  70 N20G30    30.68R WCI -36
WHEATON        PTCLDY    -9 -18  64 NW21G28   30.69R HAZE    WCI -35
MORRIS         CLOUDY    -9 -17  70 NW25      30.59R HAZE    WCI -37
ALEXANDRIA     FAIR      -8 -16  67 NW15      30.52R WCI -30
ELBOW LAKE     MOCLDY   -12 -17  75 NW16G24   30.60R HAZE    WCI -35
WADENA         FAIR      -4 -15  59 NW15      30.53R WCI -25
GLENWOOD       FAIR      -6 -13  71 NW18      30.53R WCI -29
APPLETON       CLOUDY    -8 -17  65 NW21G31   30.62R HAZE    WCI -32
BENSON         CLOUDY    -9 -17  70 N22G29    30.59R WCI -35
ORTONVILLE     MOCLDY    -8 -17  65 NW22G31   30.62R HAZE    WCI -33
MADISON        CLOUDY    -6 -11  77 NW21G29   30.63R HAZE    WCI -30
WILLMAR        FAIR      -6 -13  71 NW20G30   30.55R WCI -29
$$
MNZ033>034-036-042>043-049>051-058-059-152300-
   Central Minnesota

CITY           SKY/WX    TMP DP  RH WIND       PRES   REMARKS
ST CLOUD       MOCLDY     2  -6  69 N9        30.48R WCI -13
SAUK CENTRE      N/A     -4 -12  68 NW17      30.51R WCI -26
PAYNESVILLE    FAIR      -2  -9  71 NW14G22   30.51R WCI -21
AITKIN         FAIR       1  -6  71 NW10G16   30.47R WCI -14
PINE RIVER     MOCLDY    -2  -9  71 N7        30.54R WCI -16
BRAINERD       CLOUDY     0  -9  65 N16       30.50R WCI -20
STAPLES        MOCLDY    -2 -11  65 N13       30.51R WCI -21
LONG PRAIRIE   FAIR      -2 -11  65 W16       30.50R WCI -23
LITTLE FALLS   FAIR       3 -13  47 NW6       30.50R WCI  -8
LITCHFIELD     MOCLDY     1  -6  71 NW17G23   30.49R WCI -19
BUFFALO        FAIR       3  -5  68 NW10      30.48R HAZE    WCI -12
MAPLE LAKE     CLOUDY     4  -3  71 MISG      30.48R HAZE
HUTCHINSON     FAIR       1  -6  69 NW16G24   30.49R WCI -18
$$
MNZ037-044-045-052-053-152300-
   East Central Minnesota

CITY           SKY/WX    TMP DP  RH WIND       PRES   REMARKS
PRINCETON      MOCLDY     5  -6  61 NW12      30.46R WCI -11
MORA           MOCLDY     7  -2  66 N13G18    30.45R WCI  -9
CAMBRIDGE      FLURRIES   7  -4  61 NW10G16   30.45R WCI  -8
RUSH CITY      CLOUDY     7  -2  67 NW9G16    30.43R WCI  -7
MOOSE LAKE     LGT SNOW   9   1  72 N12G17    30.42R WCI  -6
HINCKLEY       FAIR       9   0  66 N13G20    30.42R WCI  -7
CLOQUET        LGT SNOW   9   1  72 NW16G24   30.40R WCI  -9
MCGREGOR       CLOUDY     5   0  78 N15       30.46R WCI -13
$$
MNZ071>073-080-081-089-090-097-098-152300-
   Southwest Minnesota

CITY           SKY/WX    TMP DP  RH WIND       PRES   REMARKS
MONTEVIDEO     CLOUDY    -8 -15  71 N23G31    30.60R WCI -33
GRANITE FALLS  MOCLDY    -5 -12  71 NW23G30   30.61R WCI -30
CANBY          CLEAR     -4 -12  70 NW18      30.61R WCI -27
MARSHALL       MOCLDY    -7 -14  71 N28G33    30.57R HAZE    WCI -35
REDWOOD FALLS  CLOUDY    -7 -14  71 NW22G31   30.55R WCI -32
OLIVIA         MOCLDY    -4 -11  71 NW22G31   30.54R WCI -28
PIPESTONE      PTCLDY    -6 -13  71 N20G30    30.50S WCI -29
WINDOM         HAZE      -6 -20  49 NW29      30.49R VSB 3/4 WCI -33
WORTHINGTON    FLURRIES  -4 -10  75 NW21G29   30.50R WCI -28
JACKSON        CLOUDY    -6 -11  77 NW30      30.47R HAZE    WCI -34
SLAYTON        MOCLDY    -5 -11  75 NW22G28   30.49R HAZE    WCI -30
$$
MNZ065>067-074>077-082>085-091>093-152300-
   South Central Minnesota

CITY           SKY/WX    TMP DP  RH WIND       PRES   REMARKS
MANKATO        LGT SNOW  -1  -6  79 NW21      30.47R WCI -24
NEW ULM        MOCLDY    -6 -13  71 NW23G31   30.51R WCI -31
ST JAMES       MOCLDY    -4 -11  71 NW23G30   30.52R WCI -29
FAIRMONT       PTCLDY    -4  -9  77 NW21G33   30.49R HAZE    WCI -28
FARIBAULT      CLOUDY     1  -6  71 NW13G21   30.43R WCI -16
OWATONNA       FAIR       1  -4  78 NW17      30.41R WCI -19
WASECA         CLOUDY     3  -4  72 NW20      30.45R HAZE    WCI -18
ALBERT LEA     CLOUDY     0  -8  71 NW15G24   30.40R HAZE    WCI -20
$$
MNZ078>079-086>088-094>096-152300-
   Southeast Minnesota

CITY           SKY/WX    TMP DP  RH WIND       PRES   REMARKS
ROCHESTER      LGT SNOW   2  -3  80 NW21G30   30.33R WCI -20
RED WING       LGT SNOW   7  -4  61 NW10G18   30.41R WCI  -8
STANTON        FAIR       5  -3  68 NW16      30.42R WCI -14
DODGE CENTER   CLOUDY     1  -6  71 NW18G25   30.36R HAZE    WCI -19
WINONA         CLOUDY    10   3  72 NW16        N/A  WCI  -7
AUSTIN         CLOUDY     1  -8  66 NW20G29   30.37R WCI -20
PRESTON        CLOUDY     2  -4  74 NW17G25   30.33R HAZE    WCI -18
$$
ABBREVIATIONS USED IN REMARKS
   TC - TEMPERATURES IN CELSIUS
  WCI - WIND CHILL INDEX
   HX - HEAT INDEX
  VSB - VISIBILITY
$$




USA.gov is the U.S. government's official web portal to all federal, state and local government web resources and services.